Weather History for PAGA - May, 2013

Change the Weather History Date:

Tuesday, May 21, 2013

  Actual Average Record
Temperature  
Mean Temperature 46 °F -  
Max Temperature 50 °F 55 °F 82 °F (2002)
Min Temperature 42 °F 36 °F 23 °F (1986)
Degree Days  
Heating Degree Days 19    
Moisture  
Dew Point 34 °F    
Average Humidity 64    
Maximum Humidity 81    
Minimum Humidity 48    
Precipitation  
Precipitation 0.00 in - - ()
Sea Level Pressure  
Sea Level Pressure 30.28 in    
Wind  
Wind Speed 7 mph (SE)    
Max Wind Speed 15 mph    
Max Gust Speed 18 mph    
Visibility 10 miles    
Events Rain    
Averages and records for this station are not official NWS values.
T = Trace of Precipitation, MM = Missing Value Source: NWS Daily Summary

Daily Weather History Graph

Daily Weather History Graph

Search for Another Location

Airport or City:

Trip Planner

Search our weather history database for the weather conditions in past years. The results will help you decide how hot, cold, wet, or windy it might be!

Date:

Astronomy

May. 21, 2013 Rise Set
Actual Time 4:44 AM AKDT 12:07 AM AKDT
Civil Twilight 2:56 AM AKDT 1:51 AM AKDT
Nautical Twilight Sun does not set Sun does not set
Astronomical Twilight Sun does not set Sun does not set
Moon 7:04 PM AKDT (5/21) 4:02 AM AKDT (5/21)
Length of Visible Light 22h 55m
Length of Day
19h 22m
Waxing Gibbous, 85% of the Moon is Illuminated
May 21
Waxing Gibbous
May 24
Full
May 31
Last Quarter
Jun 8
New
Jun 16
First Quarter

Hourly Weather History & Observations

Time (AKDT) Temp. Windchill Dew Point Humidity Pressure Visibility Wind Dir Wind Speed Gust Speed Precip Events Conditions
12:58 AM 45.0 °F 42.6 °F 26.1 °F 48% 30.37 in 10.0 mi SSW 4.6 mph - N/A   Mostly Cloudy
1:58 AM 43.0 °F 40.3 °F 26.1 °F 51% 30.36 in 10.0 mi SSE 4.6 mph - N/A   Overcast
2:58 AM 43.0 °F 38.2 °F 27.0 °F 53% 30.36 in 10.0 mi SSE 8.1 mph - N/A   Overcast
3:58 AM 42.1 °F 38.4 °F 30.0 °F 62% 30.36 in 10.0 mi SSE 5.8 mph - 0.00 in Rain Light Rain
4:58 AM 42.1 °F 39.2 °F 30.0 °F 62% 30.35 in 10.0 mi SE 4.6 mph - 0.00 in   Overcast
5:58 AM 42.1 °F 37.1 °F 32.0 °F 67% 30.35 in 10.0 mi SSE 8.1 mph - N/A   Overcast
6:58 AM 42.1 °F 37.1 °F 34.0 °F 73% 30.34 in 10.0 mi SSE 8.1 mph - N/A   Overcast
7:58 AM 42.1 °F 37.1 °F 34.0 °F 73% 30.34 in 10.0 mi SSE 8.1 mph - N/A   Overcast
8:58 AM 43.0 °F 38.8 °F 34.0 °F 71% 30.33 in 10.0 mi SSE 6.9 mph - N/A   Overcast
9:58 AM 44.1 °F 41.5 °F 35.1 °F 71% 30.33 in 10.0 mi SSE 4.6 mph - N/A   Overcast
10:42 AM 42.8 °F 37.5 °F 37.4 °F 81% 30.30 in 10.0 mi South 9.2 mph - 0.00 in Rain Light Rain
10:58 AM 43.0 °F 39.5 °F 37.0 °F 80% 30.33 in 10.0 mi SSE 5.8 mph - 0.00 in Rain Light Rain
11:12 AM 42.8 °F 38.0 °F 37.4 °F 81% 30.30 in 10.0 mi SSE 8.1 mph - 0.00 in Rain Light Rain
11:46 AM 44.6 °F 43.1 °F 37.4 °F 76% 30.30 in 10.0 mi ESE 3.5 mph - 0.00 in Rain Light Rain
11:58 AM 44.1 °F 40.8 °F 37.0 °F 76% 30.32 in 10.0 mi ESE 5.8 mph - 0.00 in Rain Light Rain
12:58 PM 46.0 °F 41.4 °F 35.1 °F 66% 30.30 in 10.0 mi SE 9.2 mph - 0.00 in Rain Light Rain
1:58 PM 48.9 °F - 35.1 °F 59% 30.28 in 10.0 mi SE 9.2 mph - 0.00 in   Overcast
2:58 PM 48.9 °F - 36.0 °F 61% 30.27 in 10.0 mi SSE 9.2 mph - N/A   Overcast
3:58 PM 48.9 °F - 35.1 °F 59% 30.25 in 10.0 mi SSE 15.0 mph - N/A   Overcast
4:58 PM 48.9 °F - 35.1 °F 59% 30.24 in 10.0 mi SSE 13.8 mph - N/A   Overcast
5:58 PM 50.0 °F - 35.1 °F 57% 30.22 in 10.0 mi South 12.7 mph 18.4 mph N/A   Mostly Cloudy
6:58 PM 50.0 °F - 35.1 °F 57% 30.20 in 10.0 mi SSE 9.2 mph - N/A   Overcast
7:58 PM 50.0 °F - 35.1 °F 57% 30.18 in 10.0 mi South 5.8 mph - N/A   Overcast
8:58 PM 50.0 °F - 35.1 °F 57% 30.17 in 10.0 mi NE 4.6 mph - N/A   Overcast
9:58 PM 48.9 °F - 35.1 °F 59% 30.15 in 10.0 mi East 6.9 mph - N/A   Overcast
10:58 PM 48.0 °F - 34.0 °F 58% 30.14 in 10.0 mi East 5.8 mph - N/A   Overcast
11:58 PM 46.0 °F 43.1 °F 35.1 °F 66% 30.14 in 10.0 mi East 5.8 mph - N/A   Overcast